Location: Newark
(49.8348°N, 24.0280°E)
Time: 02:01:54
(UTC+00:00)

Explorer 7 - Pass Details

Date: 22 January 2020
Orbit: 485 x 679 km, 50.3° (Epoch: 25 February)

Event Time Altitude Azimuth Distance (km) Brightness Sun altitude
Rises 23:59:14 0° 253° (WSW) 2,544 - -55.7°
Reaches altitude 10° 00:01:23 10° 252° (WSW) 1,668 - -55.5°
Maximum altitude 00:05:08 80° 165° (SSE) 505 - -55.1°
Drops below altitude 10° 00:09:00 10° 80° (E) 1,718 - -54.7°
Sets 00:11:15 0° 79° (E) 2,630 - -54.4°
